Regional Weather Roundup
Issued by NWS

Home | Current Version | Previous Version | Text Only | Print | Product List | Glossary Off
Versions: 1 2 3 4 5 6 7 8 9 10 11 12 13 14 15 16 17 18 19 20 21 22 23 24 25 26 27 28 29 30 31 32 33 34 35 36 37 38 39 40 41 42 43 44 45 46 47 48 49 50

000
ASUS43 KMKX 221600
RWRWI

WISCONSIN REGIONAL WEATHER ROUNDUP
NATIONAL WEATHER SERVICE MILWAUKEE/SULLIVAN WI
1100 AM CDT TUE JUL 22 2014

NOTE: "FAIR" INDICATES FEW OR NO CLOUDS BELOW 12,000 FEET WITH NO
SIGNIFICANT WEATHER AND/OR OBSTRUCTIONS TO VISIBILITY.

WIZ001-002-006>008-014>016-023>028-221700-
NORTHWEST WISCONSIN

CITY           SKY/WX    TMP DP  RH WIND       PRES   REMARKS
SUPERIOR ARPT  PTSUNNY   74  65  72 NW16      29.91R
ASHLAND        PTSUNNY   74  65  73 W14G24    29.89R
HAYWARD        CLOUDY    74  63  68 NW8G21    29.93R
SIREN          CLOUDY    74  63  68 N15G26    29.94S
RICE LAKE      CLOUDY    76  63  64 NW13G21   29.93F
LADYSMITH      CLOUDY    76  65  67 NW14G24   29.93F
EAU CLAIRE     NOT AVBL
MENOMONIE      PTSUNNY   78  64  62 NW9       29.94R HX  80
NEW RICHMOND   MOSUNNY   77  65  66 NW12G17   29.96R
OSCEOLA        CLOUDY    76  66  72 NW12G20   29.96R
$$

WIZ003>005-009-010-017-018-221700-
NORTH CENTRAL WISCONSIN

CITY           SKY/WX    TMP DP  RH WIND       PRES   REMARKS
WOODRUFF       MOSUNNY   77  66  68 W12G18    29.88R
RHINELANDER    PTSUNNY   78  65  63 W15G29    29.89R HX  80
EAGLE RIVER    PTSUNNY   77  63  61 W15G24    29.85R
LAND O LAKES   PTSUNNY   75  64  68 W10G21    29.86R
PHILLIPS       CLOUDY    74  65  72 NW8G20    29.91R
TOMAHAWK       MOSUNNY   78  64  61 W18       29.90R HX  80
MEDFORD        PTSUNNY   79  71  75 NW16G26   29.89S HX  82
MERRILL        PTSUNNY   82  73  73 W14G24    29.86S HX  88
$$

WIZ029-030-035-036-043>047-221700-
CENTRAL WISCONSIN

CITY           SKY/WX    TMP DP  RH WIND       PRES   REMARKS
WAUSAU         PTSUNNY   85  72  65 W15       29.86S HX  91
MOSINEE        CLOUDY   N/A  73   0 SW16      29.89S HX  80
MARSHFIELD     PTSUNNY   84  74  71 W10       29.88F HX  91
STEVENS POINT  PTSUNNY   80  71  73 SW14G20   29.89S HX  83
WAUPACA        PTSUNNY   86  71  62 SW12G18   29.88F HX  91
WAUTOMA        MOSUNNY   84  73  70 SW10G17   29.89F HX  91
WISC RAPIDS    PTSUNNY   85  73  67 W10       29.89F HX  91
CAMP DOUGLAS   NOT AVBL
$$

WIZ011>013-019>022-031-037>040-048>050-221700-
NORTHEAST WISCONSIN

CITY           SKY/WX    TMP DP  RH WIND       PRES   REMARKS
ANTIGO         CLOUDY    78  73  82 W12G22    29.88S HX  81
STURGEON BAY   PTSUNNY   82  70  65 SW17G28   29.86S HX  86
GREEN BAY      CLOUDY    81  71  71 SW10      29.87F HX  85
MANITOWOC      CLOUDY    82  72  69 SW16G26   29.89F HX  87
APPLETON       CLOUDY    79  70  73 SW14G21   29.91R HX  81
CLINTONVILLE   CLOUDY    81  70  69 SW14      29.86S HX  84
OSHKOSH        CLOUDY    81  71  71 SW9G22    29.91R HX  85
$$

WIZ032>034-041-042-053>061-221700-
SOUTHWEST WISCONSIN

CITY           SKY/WX    TMP DP  RH WIND       PRES   REMARKS
LA CROSSE      SUNNY     88  74  63 SW5       29.88S HX  96
SPARTA         PTSUNNY   83  71  68 SW7       29.90F HX  87
VIROQUA        CLOUDY    81  74  79 SW5       29.95S HX  86
BOSCOBEL       PTSUNNY   86  73  65 SW12      29.93F HX  93
PRAIRIE DU CHI CLOUDY    82  71  71 S3        29.92F HX  86
PLATTEVILLE    FAIR      81  74  78 SW8       29.98F HX  86
$$

WIZ056-057-062-063-064-067-068-221700-
SOUTH CENTRAL WISCONSIN

CITY           SKY/WX    TMP DP  RH WIND       PRES   REMARKS
BARABOO/DELLS  CLOUDY    82  69  65 SW12G17   29.94R HX  85
LONE ROCK      NOT AVBL
WATERTOWN      PTSUNNY   80  71  72 SW10G17   29.95R HX  83
MADISON        PTSUNNY   83  71  67 SW9       29.95R HX  87
MIDDLETON      CLOUDY    85  69  59 SW12G17   29.96R HX  89
MONROE         MOSUNNY   81  72  74 SW14G22   29.99R HX  84
JANESVILLE     MOSUNNY   84  70  61 S13G20      N/A  HX  88
$$

WIZ051-052-058>065-066-070>072-221700-
SOUTHEAST WISCONSIN

CITY           SKY/WX    TMP DP  RH WIND       PRES   REMARKS
MILWAUKEE      MOSUNNY   83  68  60 SW17      29.96S HX  86
WAUKESHA       NOT AVBL
MILWAUKEE/TIMM MOSUNNY   82  66  57 SW14G23   29.96S HX  85
RACINE         MOSUNNY   84  69  60 SW14G23   29.98S HX  88
BURLINGTON     MOSUNNY   79  69  71 SW12      29.97F HX  81
KENOSHA        MOSUNNY   83  69  62 SW17G25   29.97F HX  86
FOND DU LAC    PTSUNNY   82  69  64 SW16G25   29.92F HX  85
SHEBOYGAN      CLOUDY    82  70  66 SW17G24   29.93R HX  86
WEST BEND      CLOUDY    79  66  65 SW7       29.95S HX  81
JUNEAU         CLOUDY    80  55  43 SW14      29.96R HX  80
$$

LSZ147-162-221700-
LAKE SUPERIOR

STATION/POSITION TIME  TEMP    WIND        PRES    WAVE
                       AIR SEA DIR/SP/G            HT/PER
                 (UTC) (F)     (DEG/KT/KT) (MB)    (FT/S)
W MID LAKE BUOY  1450   50 39  250/ 14/ 16 1007.0R   2/ 4
PORT WING        1500   67     240/ 13/ 17 1011.9R
SAXON HARBOR     1540          290/ 13/ 17 1011.2R
$$

LMZ867-665-643>646-221700-
LAKE MICHIGAN

STATION/POSITION TIME  TEMP    WIND        PRES    WAVE
                       AIR SEA DIR/SP/G            HT/PER
                 (UTC) (F)     (DEG/KT/KT) (MB)    (FT/S)
N MID LAKE BUOY  1450   63 57  200/ 21/ 25 1010.2F   5/ 5
NORTHPORT PIER   1500   68     160/ 10/ 22 1010.2F
KEWAUNEE LAKESHO 1500   58     170/ 14/ 16 1012.8F
SHEBOYGAN LAKESH 1500   69     170/ 19/ 20 1013.1F
PORT WASHINGTON  1540   62     180/ 10/ 12 1014.2F
ATWATER BUOY     1500   61     170/  8     1014.8F
MILWAUKEE LAKESH 1500   78     210/ 15/ 19   N/A
S MID LAKE BUOY  1450   70 68  190/ 16/ 17 1015.6R   2/ 3
KENOSHA   LAKESH 1500   80     220/ 13/ 20   N/A
$$

TC  - TEMPERATURE IN CELSIUS
VSB - VISIBILITY IN STATUTE MILES
WCI - WIND CHILL INDEX
HX  - HEAT INDEX



USA.gov is the U.S. government's official web portal to all federal, state and local government web resources and services.